Starlink 2400

operational
NORAD ID: 47817 Int'l Des: 2021-018 Owner: SPXS Country: US Constellation: starlink
LEOCIRCULAR

Starlink 2400について

説明を読み込み中...

リアルタイム位置

3D地球を読み込み中...

次回通過

高度履歴

Altitude vs Time

uPlot chart will show altitude changes over time

軌道要素

1 47817U 21018AG 26074.55746995 .00007814 00000-0 27564-3 0 9995
2 47817 53.1582 215.8685 0001130 78.1880 281.9247 15.30204064277616
Epoch: Mar 15, 2026 • Age: 9 hours

現在のステータス

高度 482.2 km
速度 7.62 km/s
衛星直下点 -23.61°S, 41.71°E
打ち上げ日 Mar 11, 2021
運用期間 5 years
タイプ internet

技術仕様

分類 Payload
質量 260.00 kg
乾燥質量 248.00 kg
総質量 260.00 kg
長さ 0.20 m
直径 2.80 m
スパン 9.00 m
形状 Box + pan
製造者 SPXS
バスタイプ Starlink
フェーズステータス In Orbit
所有者/国 SPXS/US

大規模コンステレーション

Loading constellations...